EW1379 Weather Reports


Display with metric or nautical units.
time (UTC)temp
F
wind
direction
speed
MPH
gust
MPH
rain 1hr
in
rain 24hr
in
rain mn
in
humidity
%
barometer
mb
20260831153942 68 134 2.0 4.0 0.06 0.28 0.27 96 1018.8
20260831153415 68 133 2.0 3.0 0.07 0.27 0.26 96 1018.9
20260831152933 68 133 0.0 4.0 0.09 0.27 0.26 95 1018.9
20260831152420 68 133 1.0 4.0 0.10 0.27 0.26 95 1019.0
20260831151929 68 133 0.0 3.0 0.09 0.26 0.25 95 1019.1
20260831151455 68 133 1.0 4.0 0.10 0.26 0.25 95 1019.0
20260831150921 68 132 0.0 4.0 0.11 0.25 0.24 95 1018.9
20260831150415 68 130 1.0 3.0 0.13 0.25 0.24 95 1018.9
20260831145941 68 130 0.0 3.0 0.15 0.25 0.24 96 1018.9
20260831145421 68 129 2.0 4.0 0.16 0.25 0.24 95 1018.8
20260831144923 67 129 2.0 4.0 0.16 0.24 0.23 95 1018.8
20260831144430 67 128 1.0 2.0 0.16 0.23 0.22 95 1018.7
20260831143915 67 128 0.0 3.0 0.17 0.22 0.21 95 1018.8
20260831143420 67 128 1.0 4.0 0.16 0.20 0.19 95 1018.8
20260831142915 67 131 2.0 4.0 0.15 0.18 0.17 95 1018.9
20260831142430 67 123 1.0 4.0 0.15 0.17 0.16 95 1018.7
20260831141921 67 114 0.0 7.0 0.16 0.17 0.16 95 1018.6
20260831141525 67 114 4.0 7.0 0.15 0.16 0.15 95 1018.4
20260831140913 67 126 2.0 4.0 0.13 0.14 0.13 95 1018.5
20260831140426 67 139 0.0 3.0 0.11 0.12 0.11 95 1018.6
20260831135914 67 139 0.0 3.0 0.09 0.10 0.09 95 1018.6
20260831135420 67 139 0.0 3.0 0.08 0.09 0.08 95 1018.6
20260831134940 67 139 0.0 0.0 0.07 0.08 0.07 95 1018.6
20260831134441 67 139 0.0 0.0 0.06 0.07 0.06 95 1018.6
20260831133938 67 139 0.0 3.0 0.04 0.05 0.04 95 1018.7
20260831133422 67 139 0.0 4.0 0.03 0.04 0.03 95 1018.8
20260831132927 67 139 2.0 4.0 0.02 0.03 0.02 95 1018.8
20260831132420 67 182 1.0 3.0 0.01 0.02 0.01 95 1018.8
20260831131924 67 195 0.0 0.0 0.00 0.01 0.00 95 1018.9
20260831131430 67 195 0.0 0.0 0.00 0.01 0.00 95 1018.9
20260831130942 67 133 0.0 0.0 0.00 0.01 0.00 95 1018.8
20260831130413 67 132 0.0 0.0 0.00 0.01 0.00 95 1018.8
20260831125928 67 133 0.0 0.0 0.00 0.01 0.00 95 1018.9
20260831125451 67 133 0.0 1.0 0.00 0.01 0.00 96 1018.8
20260831124936 67 133 0.0 4.0 0.00 0.01 0.00 96 1018.8
20260831124427 67 133 2.0 4.0 0.00 0.01 0.00 95 1018.8
20260831123937 67 133 2.0 5.0 0.00 0.01 0.00 96 1018.8
20260831123502 67 133 4.0 5.0 0.00 0.01 0.00 96 1018.6
20260831122923 66 98 3.0 5.0 0.00 0.01 0.00 96 1018.7
20260831122425 66 157 2.0 4.0 0.00 0.01 0.00 96 1018.7
20260831121928 66 159 0.0 0.0 0.00 0.01 0.00 96 1018.9
20260831121443 66 159 0.0 0.0 0.00 0.01 0.00 95 1019.0
20260831120925 65 159 0.0 0.0 0.00 0.01 0.00 95 1019.0
20260831120411 65 178 0.0 0.0 0.00 0.01 0.00 95 1018.9
20260831115935 64 206 0.0 0.0 0.00 0.01 0.00 95 1019.0
20260831115409 64 206 0.0 0.0 0.00 0.01 0.00 95 1019.1
20260831114913 64 211 0.0 0.0 0.00 0.01 0.00 95 1019.1
20260831113954 64 257 0.0 0.0 0.00 0.01 0.00 95 1019.0
20260831113438 64 257 0.0 0.0 0.00 0.01 0.00 95 1019.1
20260831112934 63 257 0.0 0.0 0.00 0.01 0.00 95 1019.1
20260831112425 63 257 0.0 0.0 0.00 0.01 0.00 95 1019.1
20260831111930 63 257 0.0 0.0 0.00 0.01 0.00 95 1019.0
20260831111422 63 257 0.0 0.0 0.00 0.01 0.00 95 1019.0
20260831110941 63 257 0.0 0.0 0.00 0.01 0.00 95 1019.1
20260831110450 63 257 0.0 0.0 0.00 0.01 0.00 95 1019.1
20260831105923 63 257 0.0 0.0 0.00 0.01 0.00 95 1019.1
20260831105431 63 257 0.0 0.0 0.00 0.01 0.00 94 1019.0
20260831104926 63 257 0.0 0.0 0.00 0.01 0.00 94 1018.9
20260831104432 63 257 0.0 0.0 0.00 0.01 0.00 95 1018.9
20260831103919 63 257 0.0 0.0 0.00 0.01 0.00 95 1018.8
20260831103426 63 257 0.0 0.0 0.00 0.01 0.00 95 1018.8
20260831102958 63 257 0.0 0.0 0.00 0.01 0.00 94 1018.7
20260831102414 62 257 0.0 0.0 0.00 0.01 0.00 95 1018.7
20260831101936 62 257 0.0 0.0 0.00 0.01 0.00 94 1018.8
20260831101412 62 257 0.0 0.0 0.00 0.01 0.00 94 1018.8
20260831100917 62 257 0.0 0.0 0.00 0.01 0.00 94 1018.9
20260831100428 62 257 0.0 0.0 0.00 0.01 0.00 94 1018.9
20260831095935 62 257 0.0 0.0 0.00 0.01 0.00 94 1018.9
20260831095451 62 257 0.0 0.0 0.00 0.01 0.00 94 1018.9
20260831094937 62 257 0.0 0.0 0.00 0.01 0.00 94 1019.0
20260831094416 62 257 0.0 0.0 0.00 0.01 0.00 94 1018.9
20260831093926 62 257 0.0 0.0 0.00 0.01 0.00 94 1019.0
20260831093424 62 257 0.0 0.0 0.00 0.01 0.00 94 1018.9
20260831092920 62 257 0.0 0.0 0.00 0.01 0.00 94 1018.9
20260831092430 62 257 0.0 0.0 0.00 0.01 0.00 94 1018.9
20260831091916 61 257 0.0 0.0 0.00 0.01 0.00 94 1018.9
20260831091430 61 257 0.0 0.0 0.00 0.01 0.00 94 1018.9
20260831090914 61 257 0.0 0.0 0.00 0.01 0.00 94 1018.9
20260831090433 61 257 0.0 0.0 0.00 0.01 0.00 94 1019.1
20260831085920 61 257 0.0 0.0 0.00 0.01 0.00 94 1019.1
20260831085411 61 257 0.0 0.0 0.00 0.01 0.00 93 1019.0
20260831084918 61 257 0.0 0.0 0.00 0.01 0.00 93 1019.0
20260831084441 61 257 0.0 0.0 0.00 0.01 0.00 93 1019.0
20260831083915 61 257 0.0 0.0 0.00 0.01 0.00 93 1019.1
20260831083424 61 257 0.0 0.0 0.00 0.01 0.00 93 1019.0
20260831083003 61 257 0.0 0.0 0.00 0.01 0.00 93 1019.1
20260831082423 61 257 0.0 0.0 0.00 0.01 0.00 93 1019.2
20260831081914 61 257 0.0 0.0 0.00 0.01 0.00 93 1019.2
20260831081424 60 257 0.0 0.0 0.00 0.01 0.00 93 1019.2
20260831080912 60 257 0.0 0.0 0.00 0.01 0.00 93 1019.1
20260831080438 60 257 0.0 0.0 0.00 0.01 0.00 93 1019.1
20260831075940 60 257 0.0 0.0 0.00 0.01 0.00 92 1019.1
20260831075445 60 257 0.0 0.0 0.00 0.01 0.00 92 1019.0
20260831074939 60 257 0.0 0.0 0.00 0.01 0.00 92 1019.0
20260831074447 60 257 0.0 0.0 0.00 0.01 0.00 92 1019.1
20260831073917 60 257 0.0 0.0 0.00 0.01 0.00 92 1019.1
20260831073425 60 257 0.0 0.0 0.00 0.01 0.00 92 1019.1
20260831072918 60 257 0.0 0.0 0.00 0.01 0.00 92 1019.2
20260831072421 60 257 0.0 0.0 0.00 0.01 0.00 92 1019.1
20260831071937 60 257 0.0 0.0 0.00 0.01 0.00 92 1019.1
20260831071411 60 257 0.0 0.0 0.00 0.01 0.00 92 1019.2
20260831070930 60 257 0.0 0.0 0.00 0.01 0.00 92 1019.2
20260831070414 60 257 0.0 0.0 0.00 0.01 0.00 92 1019.2
20260831065941 60 257 0.0 0.0 0.00 0.01 0.00 92 1019.1
20260831065450 60 257 0.0 0.0 0.00 0.01 0.00 92 1019.1
20260831064910 60 257 0.0 0.0 0.00 0.01 0.00 92 1019.2
20260831064412 60 257 0.0 0.0 0.00 0.01 0.00 92 1019.3
20260831063931 60 257 0.0 0.0 0.00 0.01 0.00 92 1019.3
20260831063432 60 257 0.0 0.0 0.00 0.01 0.00 92 1019.2
20260831062935 60 257 0.0 0.0 0.00 0.01 0.00 92 1019.2
20260831062424 60 257 0.0 0.0 0.00 0.01 0.00 92 1019.2
20260831061914 60 257 0.0 0.0 0.00 0.01 0.00 92 1019.2
20260831061418 60 257 0.0 0.0 0.00 0.01 0.00 92 1019.3
20260831060913 61 257 0.0 0.0 0.00 0.01 0.00 92 1019.3
20260831060417 61 257 0.0 0.0 0.00 0.01 0.00 92 1019.4
20260831055914 61 257 0.0 0.0 0.00 0.01 0.00 92 1019.3
20260831055420 61 257 0.0 0.0 0.00 0.01 0.00 92 1019.2
20260831054935 61 257 0.0 0.0 0.00 0.01 0.00 91 1019.3
20260831054423 61 257 0.0 0.0 0.00 0.01 0.00 91 1019.4
20260831053940 61 257 0.0 0.0 0.00 0.01 0.00 91 1019.4
20260831053433 61 257 0.0 0.0 0.00 0.01 0.00 91 1019.4
20260831052918 61 257 0.0 0.0 0.00 0.01 0.00 91 1019.5
20260831052443 61 257 0.0 0.0 0.00 0.01 0.00 91 1019.5
20260831051915 61 257 0.0 0.0 0.00 0.01 0.00 91 1019.4
20260831051438 61 257 0.0 0.0 0.00 0.01 0.00 91 1019.5
20260831050917 61 257 0.0 0.0 0.00 0.01 0.00 91 1019.5
20260831050419 61 257 0.0 0.0 0.00 0.01 0.00 91 1019.6
20260831045911 61 257 0.0 0.0 0.00 0.01 0.00 91 1019.7
20260831045450 61 257 0.0 0.0 0.00 0.01 0.00 91 1019.8
20260831044940 61 257 0.0 0.0 0.00 0.01 0.00 91 1019.9
20260831044433 61 257 0.0 0.0 0.00 0.01 0.00 91 1019.8
20260831043915 61 257 0.0 0.0 0.00 0.01 0.00 91 1019.9
20260831043432 62 257 0.0 0.0 0.00 0.01 0.00 91 1019.9
20260831042959 62 257 0.0 0.0 0.00 0.01 0.00 91 1019.9
20260831042416 62 257 0.0 0.0 0.00 0.01 0.00 90 1019.8
20260831041911 62 257 0.0 0.0 0.00 0.01 0.00 90 1019.7
20260831041436 62 257 0.0 0.0 0.00 0.01 0.00 91 1019.7
20260831040942 62 257 0.0 0.0 0.00 0.01 0.00 91 1019.7
20260831040442 62 257 0.0 0.0 0.00 0.01 0.00 90 1019.8
20260831035925 62 257 0.0 0.0 0.00 0.01 0.01 90 1019.8
20260831035437 63 257 0.0 0.0 0.00 0.01 0.01 90 1019.7
20260831034917 63 257 0.0 0.0 0.00 0.01 0.01 90 1019.7
20260831034430 63 257 0.0 0.0 0.00 0.01 0.01 90 1019.7
20260831034004 63 257 0.0 0.0 0.00 0.01 0.01 90 1019.7
20260831033414 63 257 0.0 0.0 0.00 0.01 0.01 90 1019.7
20260831032940 63 257 0.0 0.0 0.00 0.01 0.01 90 1019.7
20260831032428 63 257 0.0 0.0 0.00 0.01 0.01 90 1019.8
20260831031928 63 257 0.0 0.0 0.00 0.01 0.01 90 1019.7
20260831031416 63 257 0.0 0.0 0.00 0.01 0.01 90 1019.7
20260831030923 63 257 0.0 0.0 0.00 0.01 0.01 90 1019.7
20260831030417 63 257 0.0 0.0 0.00 0.01 0.01 90 1019.6
20260831025945 64 257 0.0 0.0 0.00 0.01 0.01 90 1019.6
20260831025429 64 257 0.0 0.0 0.00 0.01 0.01 90 1019.6
20260831024927 64 257 0.0 0.0 0.00 0.01 0.01 90 1019.4
20260831024437 64 257 0.0 0.0 0.00 0.01 0.01 90 1019.5
20260831023935 64 257 0.0 0.0 0.00 0.01 0.01 89 1019.5
20260831023426 64 257 0.0 0.0 0.00 0.01 0.01 90 1019.6
20260831022932 64 257 0.0 0.0 0.00 0.01 0.01 90 1019.6
20260831022420 64 257 0.0 0.0 0.00 0.01 0.01 89 1019.6
20260831021932 64 257 0.0 0.0 0.00 0.01 0.01 89 1019.7
20260831021425 64 257 0.0 0.0 0.00 0.01 0.01 89 1019.7
20260831020933 65 257 0.0 0.0 0.00 0.01 0.01 89 1019.8
20260831020408 65 257 0.0 0.0 0.00 0.01 0.01 89 1019.8
20260831015939 65 257 0.0 0.0 0.00 0.01 0.01 88 1019.8
20260831015425 65 257 0.0 0.0 0.00 0.01 0.01 88 1019.8
20260831014918 65 257 0.0 0.0 0.00 0.01 0.01 88 1019.8
20260831014417 65 257 0.0 0.0 0.00 0.01 0.01 88 1019.8
20260831013924 65 257 0.0 0.0 0.00 0.01 0.01 88 1019.9
20260831013517 65 257 0.0 0.0 0.00 0.01 0.01 88 1019.9
20260831012912 65 257 0.0 0.0 0.00 0.01 0.01 87 1019.9
20260831012422 66 257 0.0 0.0 0.00 0.01 0.01 87 1019.9
20260831011915 66 257 0.0 0.0 0.00 0.01 0.01 87 1019.9
20260831011420 66 257 0.0 0.0 0.00 0.01 0.01 87 1019.8
20260831010946 66 257 0.0 0.0 0.00 0.01 0.01 87 1019.7
20260831010424 66 257 0.0 0.0 0.00 0.01 0.01 87 1019.6
20260831005933 66 257 0.0 0.0 0.00 0.01 0.01 87 1019.5
20260831005422 66 257 0.0 0.0 0.00 0.01 0.01 86 1019.5
20260831004927 66 257 0.0 0.0 0.00 0.01 0.01 86 1019.4
20260831004414 66 257 0.0 0.0 0.00 0.01 0.01 86 1019.4
20260831003924 67 257 0.0 0.0 0.00 0.01 0.01 86 1019.3
20260831003454 67 257 0.0 0.0 0.00 0.01 0.01 86 1019.2
20260831002927 67 257 0.0 0.0 0.00 0.01 0.01 86 1019.1
20260831002414 67 257 0.0 0.0 0.00 0.01 0.01 86 1019.0
20260831001914 67 257 0.0 0.0 0.00 0.01 0.01 86 1018.9
20260831001414 67 257 0.0 0.0 0.00 0.01 0.01 86 1018.8
20260831000913 67 257 0.0 0.0 0.00 0.01 0.01 86 1018.8
20260831000427 67 257 0.0 0.0 0.00 0.01 0.01 86 1018.8
20260830235924 68 257 0.0 0.0 0.00 0.01 0.01 86 1018.8
20260830235429 68 257 0.0 0.0 0.00 0.01 0.01 86 1018.8
20260830234926 68 257 0.0 0.0 0.00 0.01 0.01 85 1018.8
20260830234433 68 257 0.0 0.0 0.00 0.01 0.01 85 1018.7
20260830233918 68 257 0.0 0.0 0.00 0.01 0.01 85 1018.6
20260830233437 68 257 0.0 0.0 0.00 0.01 0.01 86 1018.6
20260830232916 69 257 0.0 0.0 0.00 0.01 0.01 86 1018.6
20260830232412 69 257 0.0 0.0 0.00 0.01 0.01 86 1018.5
20260830231919 69 257 0.0 0.0 0.00 0.01 0.01 86 1018.7
20260830231439 69 257 0.0 0.0 0.00 0.01 0.01 86 1018.7
20260830230919 69 257 0.0 0.0 0.00 0.01 0.01 86 1018.7
20260830230422 69 257 0.0 0.0 0.00 0.01 0.01 86 1018.7
20260830225953 69 257 0.0 0.0 0.00 0.01 0.01 86 1018.7
20260830225417 69 257 0.0 0.0 0.00 0.01 0.01 86 1018.7
20260830224913 69 257 0.0 2.0 0.00 0.01 0.01 86 1018.7
20260830224434 69 257 0.0 3.0 0.00 0.01 0.01 86 1018.7
20260830223921 69 259 1.0 3.0 0.00 0.01 0.01 86 1018.7
20260830223428 69 255 1.0 2.0 0.00 0.01 0.01 87 1018.8
20260830222958 69 265 0.0 2.0 0.00 0.01 0.01 87 1018.7
20260830222412 69 265 0.0 2.0 0.00 0.01 0.01 87 1018.6
20260830221945 69 265 0.0 0.0 0.00 0.01 0.01 87 1018.6
20260830221416 69 265 0.0 0.0 0.00 0.01 0.01 87 1018.8
20260830220915 70 265 0.0 0.0 0.00 0.01 0.01 87 1018.8
20260830220414 70 266 0.0 0.0 0.00 0.01 0.01 87 1018.8
20260830215934 70 266 0.0 0.0 0.00 0.01 0.01 87 1018.7
20260830215420 70 271 0.0 0.0 0.00 0.01 0.01 87 1018.6
20260830214928 70 271 0.0 0.0 0.00 0.01 0.01 87 1018.6
20260830214429 70 277 0.0 0.0 0.00 0.01 0.01 87 1018.6
20260830213922 70 277 0.0 2.0 0.00 0.01 0.01 87 1018.6
20260830213408 70 277 0.0 2.0 0.00 0.01 0.01 87 1018.7
20260830212914 70 277 0.0 2.0 0.00 0.01 0.01 88 1018.6
20260830212434 70 277 0.0 2.0 0.00 0.01 0.01 88 1018.6
20260830211925 70 275 0.0 1.0 0.00 0.01 0.01 88 1018.6
20260830211414 70 275 0.0 3.0 0.00 0.01 0.01 88 1018.6
20260830210919 70 275 0.0 0.0 0.00 0.01 0.01 88 1018.7
20260830210421 70 275 0.0 0.0 0.00 0.01 0.01 88 1018.7
20260830205912 70 275 0.0 0.0 0.00 0.01 0.01 88 1018.7
20260830205418 70 275 0.0 3.0 0.00 0.01 0.01 88 1018.8
20260830204936 70 275 0.0 3.0 0.00 0.01 0.01 88 1018.8
20260830204419 70 275 0.0 1.0 0.00 0.01 0.01 88 1018.9
20260830203923 70 275 0.0 3.0 0.00 0.01 0.01 88 1018.9
20260830203450 70 274 0.0 3.0 0.00 0.01 0.01 88 1018.9
20260830202924 70 274 1.0 3.0 0.00 0.01 0.01 88 1018.8
20260830202437 70 275 0.0 2.0 0.00 0.01 0.01 89 1018.8
20260830201912 70 275 0.0 2.0 0.00 0.01 0.01 88 1018.7
20260830201444 70 275 0.0 0.0 0.00 0.01 0.01 89 1018.8
20260830200945 70 275 0.0 0.0 0.00 0.01 0.01 88 1018.7
20260830200431 70 275 0.0 0.0 0.00 0.01 0.01 88 1018.7
20260830195912 70 275 0.0 0.0 0.00 0.01 0.01 88 1018.8
20260830195424 70 275 0.0 0.0 0.00 0.01 0.01 89 1018.8
20260830194920 69 275 0.0 0.0 0.00 0.01 0.01 89 1018.8
20260830194434 69 275 0.0 2.0 0.00 0.01 0.01 89 1018.8
20260830193918 69 275 0.0 4.0 0.00 0.01 0.01 89 1018.9
20260830193414 69 252 0.0 3.0 0.00 0.01 0.01 89 1018.9
20260830192916 69 252 0.0 3.0 0.00 0.01 0.01 89 1019.0
20260830192413 69 234 0.0 2.0 0.00 0.01 0.01 89 1019.0
20260830191945 69 275 0.0 0.0 0.00 0.01 0.01 89 1018.9
20260830191440 69 275 0.0 0.0 0.00 0.01 0.01 89 1018.9
20260830190913 69 275 0.0 0.0 0.00 0.01 0.01 88 1018.9
20260830190444 69 275 0.0 0.0 0.00 0.01 0.01 88 1019.0
20260830185927 69 275 0.0 0.0 0.00 0.01 0.01 88 1019.1
20260830185428 69 275 0.0 0.0 0.00 0.01 0.01 88 1019.1
20260830184937 69 275 0.0 3.0 0.00 0.01 0.01 88 1019.3
20260830184416 69 275 0.0 4.0 0.00 0.01 0.01 87 1019.3
20260830183940 69 275 1.0 4.0 0.00 0.01 0.01 87 1019.4
20260830183503 69 275 0.0 0.0 0.00 0.01 0.01 87 1019.4
20260830182916 69 275 0.0 2.0 0.00 0.01 0.01 87 1019.4
20260830182427 69 275 0.0 0.0 0.00 0.01 0.01 88 1019.3
20260830181916 69 275 0.0 0.0 0.00 0.01 0.01 88 1019.3
20260830181425 69 275 0.0 3.0 0.00 0.01 0.01 88 1019.4
20260830180914 69 275 0.0 0.0 0.00 0.01 0.01 88 1019.4
20260830180427 69 275 0.0 2.0 0.00 0.01 0.01 87 1019.4
20260830175935 69 275 0.0 0.0 0.00 0.01 0.01 87 1019.4
20260830175413 68 276 0.0 0.0 0.00 0.01 0.01 87 1019.4
20260830174919 68 276 0.0 0.0 0.00 0.01 0.01 87 1019.5
20260830174411 68 276 0.0 2.0 0.01 0.01 0.01 87 1019.6
20260830173941 68 276 0.0 2.0 0.01 0.01 0.01 87 1019.6
20260830173430 69 275 0.0 3.0 0.01 0.01 0.01 87 1019.6
20260830172922 69 275 1.0 3.0 0.01 0.01 0.01 86 1019.6
20260830172451 69 279 0.0 3.0 0.01 0.01 0.01 86 1019.5
20260830171938 69 265 0.0 3.0 0.01 0.01 0.01 85 1019.6
20260830171422 69 269 0.0 2.0 0.01 0.01 0.01 84 1019.5
20260830170926 69 263 0.0 2.0 0.01 0.01 0.01 84 1019.5
20260830170439 69 264 1.0 2.0 0.01 0.01 0.01 83 1019.5
20260830165937 70 264 0.0 2.0 0.01 0.01 0.01 83 1019.5
20260830165422 70 285 0.0 2.0 0.01 0.01 0.01 82 1019.5
20260830164922 70 292 0.0 4.0 0.01 0.01 0.01 82 1019.6
20260830164440 70 292 1.0 4.0 0.00 0.00 0.00 81 1019.6
20260830163931 71 275 1.0 3.0 0.00 0.00 0.00 81 1019.6
20260830163427 71 276 0.0 2.0 0.00 0.00 0.00 80 1019.6
20260830162949 71 276 0.0 2.0 0.00 0.00 0.00 80 1019.6
20260830162432 71 276 0.0 2.0 0.00 0.00 0.00 80 1019.5
20260830161918 71 273 0.0 0.0 0.00 0.00 0.00 80 1019.4
20260830161422 71 273 0.0 0.0 0.00 0.00 0.00 80 1019.5
20260830160915 71 273 0.0 0.0 0.00 0.00 0.00 80 1019.5
20260830160419 71 350 0.0 0.0 0.00 0.00 0.00 80 1019.5
20260830155912 71 350 0.0 0.0 0.00 0.00 0.00 79 1019.5
20260830155439 71 350 0.0 0.0 0.00 0.00 0.00 78 1019.5
20260830154946 71 350 0.0 0.0 0.00 0.00 0.00 78 1019.4
20260830154418 71 350 0.0 0.0 0.00 0.00 0.00 77 1019.4